Weather History for Lakehurst NAS, NJ

Change the Weather History Date:

Tuesday, October 9, 2012

  Actual Average Record
Temperature  
Mean Temperature 55 °F -  
Max Temperature 59 °F 65 °F 84 °F (1997)
Min Temperature 50 °F 46 °F 30 °F (2001)
Degree Days  
Heating Degree Days 10    
Growing Degree Days 5 (Base 50)    
Moisture  
Dew Point 54 °F    
Average Humidity 92    
Maximum Humidity 100    
Minimum Humidity 74    
Precipitation  
Precipitation 0.00 in - - ()
Sea Level Pressure  
Sea Level Pressure 30.11 in    
Wind  
Wind Speed 5 mph (NE)    
Max Wind Speed 10 mph    
Max Gust Speed 16 mph    
Visibility 5 miles    
Events Rain    
Averages and records for this station are not official NWS values.
T = Trace of Precipitation, MM = Missing Value Source: NWS Daily Summary

Daily Weather History Graph

Daily Weather History Graph

Search for Another Location

Airport:

Trip Planner

Search our weather history database for the weather conditions in past years. The results will help you decide how hot, cold, wet, or windy it might be!

Date:

Astronomy

Oct. 09, 2012 Rise Set
Actual Time 7:02 AM EDT 6:26 PM EDT
Civil Twilight 6:35 AM EDT 6:53 PM EDT
Nautical Twilight 6:03 AM EDT 7:24 PM EDT
Astronomical Twilight 5:32 AM EDT 7:56 PM EDT
Moon 12:36 AM EDT (10/9) 2:52 PM EDT (10/9)
Length of Visible Light 12h 18m
Length of Day
11h 24m
Last Quarter, 37% of the Moon is Illuminated
Oct 9
Last Quarter
Oct 15
New
Oct 21
First Quarter
Oct 29
Full
Nov 6
Last Quarter

Hourly Weather History & Observations

Time (EDT) Temp. Dew Point Humidity Pressure Visibility Wind Dir Wind Speed Gust Speed Precip Events Conditions
12:00 AM 50.0 °F 45.0 °F 83% 30.20 in 10.0 mi North 5.8 mph - N/A   Overcast
1:00 AM 51.1 °F 46.0 °F 83% 30.19 in 10.0 mi North 5.8 mph - N/A   Overcast
2:00 AM 52.0 °F 46.9 °F 83% 30.18 in 10.0 mi NNE 3.5 mph - N/A   Overcast
2:30 AM 51.8 °F 46.4 °F 82% 30.18 in 10.0 mi NNE 3.5 mph - N/A   Overcast
3:00 AM 53.1 °F 46.0 °F 77% 30.17 in 10.0 mi NNE 4.6 mph - N/A   Overcast
4:00 AM 53.1 °F 46.0 °F 77% 30.16 in 10.0 mi NE 4.6 mph - N/A   Overcast
5:00 AM 53.1 °F 45.0 °F 74% 30.16 in 10.0 mi North 4.6 mph - N/A   Overcast
7:00 AM 54.0 °F 46.9 °F 77% 30.15 in 10.0 mi NNE 4.6 mph - N/A   Overcast
8:00 AM 53.1 °F 48.9 °F 86% 30.16 in 9.0 mi Variable 5.8 mph - N/A   Overcast
8:44 AM 53.6 °F 50.0 °F 88% 30.16 in 10.0 mi Variable 5.8 mph - N/A   Overcast
9:00 AM 54.0 °F 50.0 °F 86% 30.17 in 10.0 mi Calm Calm - N/A   Overcast
10:00 AM 55.0 °F 52.0 °F 89% 30.17 in 5.0 mi NNE 4.6 mph - N/A   Overcast
10:50 AM 57.2 °F 53.6 °F 88% 30.16 in 7.0 mi NE 6.9 mph - N/A   Overcast
11:00 AM 57.0 °F 53.1 °F 87% 30.16 in 6.0 mi NE 8.1 mph - N/A   Overcast
12:00 PM 57.9 °F 54.0 °F 87% 30.15 in 10.0 mi NE 6.9 mph 16.1 mph N/A   Overcast
1:00 PM 60.1 °F 54.0 °F 80% 30.12 in 10.0 mi NE 8.1 mph - N/A   Overcast
2:00 PM 60.1 °F 55.0 °F 83% 30.10 in 10.0 mi NE 10.4 mph - N/A   Overcast
3:00 PM 60.1 °F 55.0 °F 83% 30.10 in 10.0 mi NE 4.6 mph - N/A   Overcast
4:00 PM 57.9 °F 55.9 °F 93% 30.10 in 3.0 mi NE 6.9 mph - N/A   Overcast
4:20 PM 57.2 °F 55.4 °F 94% 30.10 in 2.0 mi NE 5.8 mph - N/A   Overcast
5:08 PM 57.2 °F 57.2 °F 100% 30.10 in 2.5 mi ENE 5.8 mph - N/A   Overcast
5:28 PM 57.2 °F 57.2 °F 100% 30.10 in 1.8 mi NE 5.8 mph - N/A   Overcast
5:40 PM 57.2 °F 55.4 °F 94% 30.09 in 1.8 mi NE 8.1 mph - N/A   Overcast
6:00 PM 57.0 °F 55.9 °F 96% 30.09 in 1.8 mi NE 5.8 mph - N/A   Overcast
6:30 PM 57.2 °F 55.4 °F 94% 30.09 in 4.0 mi NNE 5.8 mph - N/A   Overcast
7:00 PM 57.9 °F 57.0 °F 97% 30.08 in 3.0 mi NE 4.6 mph - N/A   Overcast
7:32 PM 57.2 °F 57.2 °F 100% 30.08 in 2.5 mi NE 5.8 mph - N/A   Overcast
7:56 PM 57.2 °F 57.2 °F 100% 30.09 in 3.0 mi Calm Calm - N/A   Overcast
8:00 PM 57.2 °F 57.2 °F 100% 30.09 in 2.5 mi Variable 3.5 mph - N/A   Overcast
8:06 PM 57.9 °F 57.0 °F 97% 30.08 in 2.5 mi NE 4.6 mph - N/A   Overcast
8:45 PM 57.2 °F 57.2 °F 100% 30.08 in 3.0 mi ENE 8.1 mph - N/A   Overcast
9:00 PM 57.2 °F 57.2 °F 100% 30.08 in 2.5 mi ENE 8.1 mph - N/A   Overcast
9:06 PM 57.9 °F 57.0 °F 97% 30.08 in 2.0 mi ENE 8.1 mph - N/A   Overcast
9:19 PM 57.2 °F 57.2 °F 100% 30.08 in 3.0 mi NE 5.8 mph - N/A   Overcast
10:00 PM 57.9 °F 57.0 °F 97% 30.08 in 3.0 mi NE 4.6 mph - 0.00 in Rain Light Rain
10:07 PM 57.2 °F 57.2 °F 100% 30.08 in 2.0 mi NE 5.8 mph - 0.00 in Rain Light Rain
10:14 PM 57.2 °F 57.2 °F 100% 30.07 in 1.5 mi ENE 5.8 mph - 0.00 in Rain Light Rain
10:27 PM 57.2 °F 57.2 °F 100% 30.07 in 2.5 mi NE 4.6 mph - 0.00 in Rain Light Rain
10:44 PM 57.2 °F 57.2 °F 100% 30.07 in 4.0 mi ENE 4.6 mph - 0.00 in   Overcast
11:00 PM 57.2 °F 57.2 °F 100% 30.07 in 2.0 mi ENE 5.8 mph - 0.00 in Rain Light Rain
11:06 PM 59.0 °F 57.2 °F 94% 30.06 in 1.8 mi ENE 5.8 mph - 0.00 in Rain Light Rain
11:14 PM 59.0 °F 57.2 °F 94% 30.06 in 2.5 mi ENE 3.5 mph - 0.00 in Rain Light Rain
11:22 PM 59.0 °F 57.2 °F 94% 30.06 in 6.0 mi NE 4.6 mph - 0.00 in   Overcast
11:43 PM 59.0 °F 57.2 °F 94% 30.05 in 2.0 mi ENE 6.9 mph - 0.00 in Rain Light Rain